User: anonymous   Login
Location: ?????oe
(44.4874°N, 135.7046°E)
Time: 02:27:55
(UTC+00:00)
Language:

Helios 1A Rocket - Orbit

View from above orbital plane
View from above orbital plane
View from above satellite
View from above satellite

Ground track
Ground track

The orbit is defined by the following mean orbital elements,

1 23608U          26039.80192301 +.00000000 +00000-0 +75285-3 0 00006
2 23608  98.2892 239.9281 0007439 132.3569 227.8308 15.44897633    05
Epoch (UTC): 08 February 2026 19:14:46
Eccentricity: 0.0007439
inclination: 98.2892°
perigee height: 427 km
apogee height: 437 km
right ascension of ascending node: 239.9281°
argument of perigee: 132.3569°
revolutions per day: 15.44897633
mean anomaly at epoch: 227.8308°

The dashed part of the orbit path shows where the satellite is in the earth's shadow,  

DLR